Location: Unspecified
(48.2082°N, 0.0000°E)
Time: 05:16:22
(UTC+00:00)

Vanguard 1 - Pass Details

Date: 29 June 2019
Orbit: 653 x 3830 km, 34.3° (Epoch: 22 July)

Event Time Altitude Azimuth Distance (km) Brightness Sun altitude
Rises 03:25:40 0° 258° (WSW) 7,760 14.1 -5.4°
Reaches altitude 10° 03:31:40 10° 253° (WSW) 6,451 13.7 -4.7°
Maximum altitude 03:49:02 45° 190° (S) 3,026 12.3 -2.6°
Drops below altitude 10° 03:59:11 10° 121° (ESE) 3,881 13.4 -1.2°
Sets 04:01:50 0° 115° (ESE) 4,541 13.9 -0.9°
